This is the latest recevied weather packets stored in our database for station/object UB3AVW-13. If no packets are shown the sender has not sent any weather packets the latest 1 day(s).
| Time | Temp. | Humidity | Pressure | Rain* | Wind** | Luminosity | Snow |
|---|---|---|---|---|---|---|---|
| 1778068793 | 20.56° C | 50% | 987.7 hPa | - | 3.58 m/s, 287° | - | - |
| 1778065759 | 20.56° C | 50% | 987.7 hPa | - | 3.58 m/s, 287° | - | - |
| 1778065152 | 20.56° C | 50% | 986.8 hPa | - | 4.02 m/s, 286° | - | - |
| 1778064849 | 18.33° C | 59% | 987.6 hPa | - | 4.02 m/s, 286° | - | - |
| 1778063938 | 18.33° C | 59% | 987.6 hPa | - | 4.02 m/s, 286° | - | - |
| 1778063634 | 18.33° C | 59% | 987.6 hPa | - | 4.02 m/s, 286° | - | - |
| 1778062421 | 18.33° C | 59% | 987.6 hPa | - | 4.02 m/s, 286° | - | - |
| 1778062118 | 17.78° C | 63% | 987.5 hPa | - | 3.58 m/s, 286° | - | - |
| 1778061878 | 18.33° C | 59% | 987.6 hPa | - | 4.02 m/s, 286° | - | - |
| 1778061815 | 18.33° C | 59% | 987.6 hPa | - | 4.02 m/s, 286° | - | - |
| 1778060905 | 17.78° C | 63% | 987.5 hPa | - | 3.58 m/s, 286° | - | - |
| 1778060602 | 17.78° C | 63% | 987.5 hPa | - | 3.58 m/s, 286° | - | - |
| 1778060299 | 17.78° C | 63% | 987.5 hPa | - | 3.58 m/s, 286° | - | - |
| 1778060059 | 17.78° C | 63% | 987.5 hPa | - | 3.58 m/s, 286° | - | - |
| 1778059388 | 17.78° C | 63% | 987.5 hPa | - | 3.58 m/s, 286° | - | - |
| 1778059085 | 17.78° C | 63% | 987.5 hPa | - | 3.58 m/s, 286° | - | - |
| 1778058782 | 17.78° C | 63% | 987.5 hPa | - | 3.58 m/s, 286° | - | - |
| 1778058479 | 17.78° C | 63% | 987.5 hPa | - | 3.58 m/s, 286° | - | - |
| 1778058300 | 17.78° C | 63% | 987.5 hPa | - | 3.58 m/s, 286° | - | - |
| 1778056660 | 16.67° C | 64% | 987.5 hPa | - | 3.58 m/s, 291° | - | - |
| 1778055448 | 16.67° C | 64% | 986.5 hPa | - | 3.58 m/s, 291° | - | - |
| 1778055145 | 16.67° C | 64% | 986.5 hPa | - | 3.58 m/s, 291° | - | - |
| 1778054842 | 16.67° C | 64% | 986.5 hPa | - | 3.58 m/s, 291° | - | - |
| 1778054662 | 16.11° C | 64% | 986.4 hPa | - | 3.58 m/s, 291° | - | - |
| 1778054538 | 16.11° C | 64% | 986.4 hPa | - | 3.58 m/s, 291° | - | - |
* Rain since midnight (hover to see other rain measurements)
** Current wind speed in m/s (hover to see current wind gust speed)